User: anonymous   Login
Location: Newark
(25.4800°N, 85.7200°E)
Time: 22:24:11
(UTC+00:00)
Language:

A-11 Canister half - Orbit

View from above orbital plane
View from above orbital plane
View from above satellite
View from above satellite

Ground track
Ground track

The orbit data is extracted from the following two-line orbital elements,

1    51U 60009C   19235.89246645 -.00000085 +00000-0 -34516-5 0  9994
2    51 047.2110 191.0915 0108106 354.5472 005.4134 12.18276591627694
Epoch (UTC): 23 August 2019 21:25:09
Eccentricity: 0.0108106
inclination: 47.2110°
perigee height: 1514 km
apogee height: 1686 km
right ascension of ascending node: 191.0915°
argument of perigee: 354.5472°
revolutions per day: 12.18276591
mean anomaly at epoch: 5.4134°
orbit number at epoch: 62769

The dashed part of the orbit path shows where the satellite is in the earth's shadow,  

DLR